TimeHST,TemperatureF,Dew PointF,Humidity,Sea Level PressureIn,VisibilityMPH,Wind Direction,Wind SpeedMPH,Gust SpeedMPH,PrecipitationIn,Events,Conditions,WindDirDegrees,DateUTC
12:53 AM,75.0,66.9,76,30.13,10.0,ENE,15.0,-,N/A,,Mostly Cloudy,60,2011-11-22 10:53:00
1:53 AM,73.4,68.0,83,30.13,10.0,ENE,18.4,-,N/A,,Mostly Cloudy,70,2011-11-22 11:53:00
2:53 AM,73.0,68.0,84,30.12,10.0,ENE,13.8,-,0.00,,Overcast,60,2011-11-22 12:53:00
3:53 AM,73.0,69.1,87,30.11,9.0,ENE,12.7,-,0.00,Rain,Light Rain,60,2011-11-22 13:53:00
4:30 AM,73.4,69.8,88,30.11,10.0,ENE,21.9,26.5,0.00,,Mostly Cloudy,60,2011-11-22 14:30:00
4:53 AM,72.0,69.1,91,30.11,10.0,NE,15.0,-,0.00,,Mostly Cloudy,40,2011-11-22 14:53:00
5:13 AM,71.6,69.8,94,30.11,1.8,NE,11.5,23.0,0.09,Rain,Heavy Rain,40,2011-11-22 15:13:00
5:19 AM,-9999,-9999,N/A,30.11,2.0,NE,17.3,23.0,0.18,Rain,Light Rain,50,2011-11-22 15:19:00
5:23 AM,-9999,-9999,N/A,30.11,6.0,ENE,16.1,21.9,0.18,Rain,Light Rain,60,2011-11-22 15:23:00
5:53 AM,72.5,70.0,92,30.12,10.0,NE,12.7,-,0.18,,Overcast,50,2011-11-22 15:53:00
6:53 AM,73.4,69.1,86,30.14,10.0,East,12.7,-,N/A,,Overcast,80,2011-11-22 16:53:00
7:30 AM,73.4,69.8,88,30.15,10.0,ENE,15.0,-,N/A,,Overcast,70,2011-11-22 17:30:00
7:49 AM,73.4,69.8,88,30.15,10.0,ENE,19.6,-,N/A,,Mostly Cloudy,70,2011-11-22 17:49:00
7:53 AM,75.0,68.0,79,30.15,10.0,ENE,19.6,-,N/A,,Mostly Cloudy,70,2011-11-22 17:53:00
8:53 AM,75.9,70.0,82,30.17,10.0,NE,19.6,-,N/A,,Mostly Cloudy,50,2011-11-22 18:53:00
9:53 AM,75.0,69.1,82,30.18,10.0,ENE,18.4,-,0.00,,Mostly Cloudy,60,2011-11-22 19:53:00
10:53 AM,73.9,70.0,87,30.18,10.0,East,13.8,-,0.00,,Overcast,80,2011-11-22 20:53:00
11:53 AM,77.0,68.0,74,30.15,10.0,East,18.4,-,N/A,,Overcast,80,2011-11-22 21:53:00
12:53 PM,78.1,66.9,68,30.14,10.0,ENE,18.4,-,N/A,,Mostly Cloudy,60,2011-11-22 22:53:00
12:58 PM,78.8,66.2,65,30.14,10.0,ENE,17.3,-,N/A,,Scattered Clouds,70,2011-11-22 22:58:00
1:53 PM,78.1,66.9,68,30.11,10.0,ENE,16.1,-,N/A,,Scattered Clouds,60,2011-11-22 23:53:00
2:53 PM,77.0,66.9,71,30.11,10.0,NE,16.1,21.9,N/A,,Mostly Cloudy,50,2011-11-23 00:53:00
3:06 PM,75.2,66.2,73,30.12,10.0,NE,16.1,-,N/A,,Mostly Cloudy,50,2011-11-23 01:06:00
3:26 PM,77.0,68.0,74,30.12,10.0,NE,15.0,-,N/A,,Scattered Clouds,40,2011-11-23 01:26:00
3:53 PM,75.9,66.0,71,30.12,10.0,NE,17.3,-,N/A,,Mostly Cloudy,40,2011-11-23 01:53:00
4:53 PM,75.9,66.0,71,30.13,10.0,NE,12.7,-,0.00,,Partly Cloudy,50,2011-11-23 02:53:00
5:53 PM,73.9,64.9,73,30.14,10.0,NE,17.3,-,N/A,,Partly Cloudy,50,2011-11-23 03:53:00
6:53 PM,73.9,64.9,73,30.16,10.0,NE,16.1,-,0.01,,Scattered Clouds,50,2011-11-23 04:53:00
7:53 PM,74.3,66.0,75,30.18,10.0,NE,19.6,-,0.00,,Scattered Clouds,50,2011-11-23 05:53:00
8:53 PM,74.3,66.0,75,30.19,10.0,NE,18.4,-,N/A,,Scattered Clouds,50,2011-11-23 06:53:00
9:53 PM,73.9,66.0,76,30.20,10.0,NE,19.6,-,N/A,,Mostly Cloudy,50,2011-11-23 07:53:00
10:53 PM,73.9,64.0,71,30.20,10.0,NE,18.4,24.2,N/A,,Partly Cloudy,40,2011-11-23 08:53:00
11:53 PM,73.0,62.1,68,30.19,10.0,ENE,18.4,-,0.00,,Scattered Clouds,60,2011-11-23 09:53:00